Location: B�lkovice
(49.7603°N, 14.8614°E)
Time: 00:43:38
(UTC+00:00)

Daily predictions for brighter satellites

Satellite Brightness Start Highest point End
(mag) Time Altitude Azimuth Time Altitude Azimuth Time Altitude Azimuth
Cosmos 1943 Rocket 4.2 02:25:02 23° E 02:25:02 23° E 02:29:12 10° NE
CENTAUR R/B 4.0 02:28:55 31° ESE 02:28:55 31° ESE 02:34:35 10° NE
Cosmos 2278 Rocket 4.2 02:51:58 20° NNE 02:51:58 20° NNE 02:53:41 10° NNE
Cosmos 2344 3.7 02:53:31 63° SE 02:53:59 64° SE 03:01:41 10° NE
BREEZE-M DEB (TANK) 4.1 03:15:56 40° SE 03:15:56 40° SE 03:22:29 10° ESE
USA 238 DEB 4.3 03:12:40 38° SSE 03:14:38 50° ESE 03:21:11 10° NE
USA 238 4.3 03:12:43 38° SSE 03:14:44 50° ESE 03:21:17 10° NE
USA 215 3.2 03:18:31 10° ESE 03:25:02 78° NNE 03:25:43 70° NNW
Cosmos 2369 Rocket 3.6 03:33:49 10° S 03:38:53 37° ESE 03:44:00 10° NE
Cosmos 1634 Rocket 4.2 03:37:46 10° N 03:44:05 71° ENE 03:50:19 10° SSE
NOSS 3-3 (A) 4.5 03:44:27 56° W 03:45:32 61° SW 03:53:47 10° SSE
NOSS 3-3 (C) 4.5 03:44:32 56° W 03:45:38 61° SW 03:53:53 10° SSE
COSMO-SKYMED 1 3.1 03:43:46 10° SSE 03:48:01 57° ENE 03:48:35 52° NE
Cosmos 1867 4.4 03:50:15 37° SSW 03:50:15 37° SSW 03:53:50 10° SSE
Cosmos 2208 Rocket 4.4 03:52:18 49° SSW 03:52:18 49° SSW 03:56:24 10° S
MOS 1-B Rocket 3.8 03:44:57 10° SSE 03:51:14 89° WSW 03:54:14 31° NNW
H-2A R/B 3.7 03:48:48 10° NNE 03:52:23 45° E 03:55:59 10° S
Tsikada Rocket 3.9 03:47:12 10° S 03:53:25 87° W 03:59:45 10° N
Gblst 52 Del rocket 4.4 03:54:35 55° SW 03:55:59 80° SSE 04:02:48 10° ENE
Cosmos 1943 Rocket 2.1 04:06:39 49° WSW 04:08:07 70° WNW 04:13:47 10° NNE
YAOGAN 6 4.5 04:04:32 10° NNE 04:13:55 - S 04:05:58 22° NNE
CZ-2C R/B 2.6 04:03:43 10° SSE 04:09:14 89° WSW 04:13:25 18° NNW
SL-19 R/B 4.2 04:05:57 10° S 04:11:28 62° WSW 04:13:20 40° NW
SKYMED 3 4.4 04:07:45 10° SSE 04:12:05 85° WSW 04:12:58 57° NNW
CZ-4C R/B 3.6 04:09:34 10° SSE 04:12:32 48° ENE 04:12:32 48° ENE
SL-8 R/B 3.7 04:16:23 56° WSW 04:17:09 66° SSW 04:21:54 10° ESE
CENTAUR R/B 2.5 04:16:08 37° WSW 04:18:47 69° NW 04:26:09 10° NE
Cosmos 2297 3.7 04:21:06 37° WSW 04:23:06 56° NW 04:28:46 10° NNE
FALCON 9 DEB 3.8 04:25:20 39° NE 04:25:20 39° NE 04:27:21 10° ENE
Cosmos 2084 Rocket 4.4 04:28:00 28° N 04:28:00 28° N 04:30:38 10° NNE
Iridium 2 3.5 04:23:50 10° S 04:27:37 80° W 04:31:26 10° N
SJ 16-02 4.2 04:26:38 10° SE 04:29:42 19° E 04:32:47 10° NE
NOSS 3-2 (A) 3.6 04:27:50 37° W 04:29:52 52° NW 04:36:30 10° NE
FALCON 9 DEB 3.7 04:31:50 40° NE 04:31:50 40° NE 04:33:58 10° ENE
Meteor 2-8 Rocket 4.5 04:26:40 10° N 04:32:52 82° E 04:39:00 10° SSE
Cosmos 2278 Rocket 3.7 04:33:50 19° NNW 04:33:50 19° NNW 04:37:06 10° N
FALCON 9 DEB 3.6 04:33:52 40° NNE 04:33:52 40° NNE 04:36:02 10° ENE
Envisat 2.9 04:29:28 10° N 04:34:33 71° WNW 04:39:36 10° SSW
Meteor 2-6 Rocket 4.0 04:30:15 10° NNW 04:35:42 79° W 04:41:05 10° S
SKYMED 2 3.7 04:31:54 10° S 04:36:07 49° W 04:37:12 39° NW
NOSS 3-2 (C) 3.3 04:33:35 23° WSW 04:37:15 69° NW 04:43:57 10° NE
Cosmos 2098 Rocket 3.0 04:38:45 10° SSW 04:42:40 66° WNW 04:47:40 10° N
SL-27 R/B 3.4 04:40:34 18° N 04:43:02 47° ENE 04:46:29 10° SE
Meteor 2-3 Rocket 4.1 04:38:19 10° SW 04:43:37 40° WNW 04:49:01 10° N
Landsat 5 3.8 04:41:20 10° S 04:45:44 51° W 04:48:26 22° NNW
CZ-4B R/B 4.1 04:42:41 10° N 04:47:05 62° WNW 04:51:30 10° SSW
Cosmos 968 Rocket 3.6 04:42:38 13° SW 04:47:07 48° WNW 04:52:05 10° NNE
Meteor 2-13 Rocket 4.5 04:41:59 10° SSW 04:47:56 54° WNW 04:53:55 10° N
FALCON 9 DEB 2.8 04:49:58 53° NNW 04:50:06 54° NNW 04:52:57 10° ENE
Cosmos 921 Rocket 3.9 04:50:35 29° W 04:50:41 29° W 04:54:32 10° SSW
Meteor 1-10 Rocket 4.1 04:46:06 10° NNW 04:51:41 80° W 04:57:13 10° S
Okean 3 Rocket 3.5 04:49:48 10° SSW 04:54:19 69° WNW 04:58:53 10° N
Cosmos 1833 4.2 04:51:16 18° NW 04:55:28 64° WSW 05:01:08 10° SSE
DNEPR-1 R/B 4.2 04:53:15 27° WNW 04:55:37 51° SW 05:01:01 10° SSE
H-2A R/B 2.3 04:52:03 10° SSE 04:56:17 70° ENE 05:00:39 10° N
ATLAS 5 CENTAUR R/B 4.2 04:53:29 10° SSE 04:56:23 21° ESE 04:59:32 10° ENE
Cosmos 1812 3.5 04:56:57 29° W 04:56:57 29° W 05:00:13 10° SSW
CBERS 1 LM4 rocket 4.4 04:53:01 10° N 04:57:44 55° WNW 05:02:34 10° SW
ADEOS 3.5 04:52:49 10° NNE 04:58:05 85° WNW 05:03:18 10° SSW
SJ-7 4.4 04:55:15 10° NNE 04:59:30 88° ESE 05:03:40 10° SSW
DMSP B5D1-3 4.5 04:54:35 10° SSE 04:59:44 81° WSW 05:04:57 10° NNW
Cosmos 1151 Rocket 3.7 05:01:35 21° NW 05:03:42 33° W 05:07:37 10° SSW
Cosmos 1354 Rocket 4.1 04:59:22 10° SSW 05:04:38 81° ESE 05:09:59 10° NNE
USA 238 DEB 3.9 05:00:11 15° WSW 05:05:37 51° NW 05:12:27 10° NE
USA 238 3.9 05:00:14 14° WSW 05:05:43 51° NW 05:12:32 10° NE
CZ-2C R/B 3.0 05:01:16 10° NNE 05:06:06 81° ESE 05:11:08 10° SSW
Cosmos 1766 Rocket 3.8 05:03:25 10° SSW 05:07:35 45° WNW 05:11:46 10° N
USA 215 3.8 05:02:13 10° SSE 05:08:22 43° SW 05:13:03 17° WNW
Cosmos 2344 4.0 05:03:34 18° W 05:08:52 43° NNW 05:16:54 10° NE
Cosmos 2263 4.2 05:03:12 10° SW 05:08:53 70° WNW 05:14:40 10° NNE
Geosat FO 4.4 05:05:53 10° SSE 05:09:11 66° WSW 05:11:21 20° NW
Meteor PRIRODA 3.5 05:07:51 10° NNE 05:11:29 82° WNW 05:15:06 10° SSW
Meteor 1-31 Rocket 3.4 05:09:26 10° N 05:12:57 32° WNW 05:16:26 10° SW
Cosmos 2279 Rocket 4.3 05:08:26 10° NNW 05:14:12 42° W 05:19:57 10° SSW
Cosmos 2297 Rocket 3.6 05:10:55 10° NNW 05:16:01 33° NE 05:21:07 10° ESE
Cosmos 1328 Rocket 4.2 05:12:41 11° NNW 05:16:24 34° W 05:20:18 10° SSW
IRAS Rocket 4.4 05:12:28 10° S 05:17:51 53° WSW 05:23:13 10° NNW
BREEZE-M DEB (TANK) 4.1 05:09:12 10° SW 05:19:10 47° SSE 05:22:22 10° E
FengYun 1-2 T 4.5 05:15:51 10° NNE 05:21:22 73° ESE 05:26:50 10° S
SMAP 3.5 05:17:13 10° NNE 05:21:53 65° ESE 05:26:30 10° S
Cosmos 2369 Rocket 2.5 05:17:31 10° SW 05:22:51 44° NW 05:28:14 10° NNE
FALCON 9 DEB 3.2 05:21:07 19° W 05:23:21 57° NNW 05:26:43 10° ENE
Cosmos 1862 4.0 05:20:28 10° SW 05:23:57 30° WNW 05:27:28 10° N
COSMO-SKYMED 1 4.0 05:21:35 10° SW 05:24:33 18° W 05:25:48 16° WNW
H-2A R/B 4.1 05:23:40 10° NNW 05:26:12 18° WNW 05:28:44 10° WSW
Nadezhda 4 Rocket 3.9 05:20:48 10° SSW 05:26:57 78° W 05:33:14 10° N
Cosmos 1607 4.3 05:23:46 10° NW 05:30:02 63° NE 05:36:09 10° SE
CZ-2D R/B 4.3 05:27:40 10° NNE 05:31:22 48° E 05:35:02 10° S
Cosmos 1538 Rocket 4.1 05:26:25 10° NNW 05:31:43 81° ENE 05:36:55 10° SSE
H-2A R/B 3.3 05:28:24 10° NNE 05:33:06 43° E 05:37:48 10° S
Cosmos 2228 Rocket 3.2 05:30:10 10° N 05:34:41 82° E 05:39:12 10° SSE
CZ-4B R/B 2.7 05:32:20 10° N 05:35:49 48° WNW 05:39:16 10° SW
Lacrosse 4 Rocket 3.7 05:35:11 10° N 05:38:20 19° NE 05:41:30 10° E
CZ-4B R/B 1.3 05:36:47 10° S 05:40:06 73° WSW 05:43:25 10° NNW
Cosmos 1092 Rocket 4.2 05:34:57 10° S 05:41:12 83° E 05:47:33 10° N
Cosmos 2263 Rocket 4.4 05:39:25 10° N 05:42:21 14° NNE 05:45:16 10° ENE
Cosmos 1408 Rocket 3.9 05:38:55 10° SW 05:42:59 40° WNW 05:47:04 10° N
USA 32 4.0 05:40:55 10° N 05:46:08 68° W 05:51:20 10° S
Cosmos 1656 Rocket 4.0 05:41:30 10° WSW 05:46:33 39° NW 05:51:41 10° NNE
Meteor 1-20 Rocket 4.3 05:41:05 10° S 05:46:39 84° ESE 05:52:23 10° NNE
Cosmos 1503 Rocket 4.4 05:41:45 10° SW 05:46:47 43° WNW 05:51:54 10° NNE
AQUARIUS 4.1 05:45:23 10° NNE 05:49:54 80° WNW 05:54:24 10° SSW
Cosmos 1743 Rocket 3.6 05:45:54 10° SSW 05:50:15 62° WNW 05:54:36 10° N
CZ-2C R/B 4.2 05:47:09 10° WSW 05:50:15 15° W 05:53:19 10° NW
Cosmos 2227 Rocket 3.3 05:46:04 10° NNW 05:51:26 41° NE 05:56:45 10° ESE
FAST Rocket 4.4 05:49:51 10° SSW 05:52:22 42° WNW 05:55:25 10° N
Cosmos 1943 Rocket 3.6 05:49:02 10° W 05:52:57 19° NW 05:56:52 10° N
Cosmos 1680 Rocket 4.5 05:48:42 10° NNW 05:53:51 47° ENE 05:58:55 10° SE
PSLV R/B 3.8 05:51:11 10° NNE 05:55:07 88° WNW 05:59:06 10° SSW
CZ-4B DEB 4.4 05:50:21 10° NNE 05:55:51 83° ESE 06:01:19 10° SSW
PSLV R/B 4.0 05:53:32 10° S 05:57:32 61° WSW 06:01:37 10° NNW
Cosmos 1777 Rocket 4.0 05:53:10 10° SSW 05:58:22 68° WNW 06:03:36 10° NNE
CORIOLIS 4.2 05:53:43 10° NNE 05:59:11 78° WNW 06:04:38 10° SSW
Meteor 1-27 Rocket 4.3 05:54:35 10° NNW 05:59:43 38° W 06:04:55 10° SSW
FALCON 9 DEB 3.3 05:57:04 10° WNW 05:59:50 40° N 06:02:37 10° ENE
NOAA 6 4.0 05:56:12 10° N 06:01:17 66° WNW 06:06:21 10° SSW
Cosmos 1602 3.7 05:58:51 10° SSW 06:02:38 67° W 06:06:27 10° N
COSMOS 2487 2.7 06:01:06 10° NNW 06:04:21 47° WSW 06:07:35 10° S
Cosmos 923 Rocket 4.3 06:01:50 10° NNW 06:07:12 74° ENE 06:12:33 10° SSE
